Overview Statistics Trail Chart Weather Telemetry Raw packets
 

This is the latest recevied weather packets stored in our database for station/object K5BOU. If no packets are shown the sender has not sent any weather packets the latest 10 day(s).

<< 76 77 78 79 80 81 82 >>
Time Temp. Humidity Pressure Rain* Wind** Luminosity Snow
1788111737 33.89° C 66% 1014.9 hPa 0 mm - 230 W/m² -
1788111437 33.89° C 67% 1015.1 hPa 0 mm - 658 W/m² -
1788111132 34.44° C 65% 1015.1 hPa 0 mm - 783 W/m² -
1788110829 33.89° C 68% 1015.2 hPa 0 mm - 776 W/m² -
1788110525 32.22° C 70% 1015.4 hPa 0 mm - 788 W/m² -
1788110220 31.67° C 73% 1015.2 hPa 0 mm - 170 W/m² -
1788109915 31.67° C 73% 1015.2 hPa 0 mm - 170 W/m² -
1788109610 31.67° C 72% 1015.4 hPa 0 mm - 193 W/m² -
1788109309 31.67° C 73% 1015.4 hPa 0 mm - 720 W/m² -
1788109004 31.11° C 76% 1015.6 hPa 0 mm - 186 W/m² -
1788108699 31.67° C 74% 1015.5 hPa 0 mm - 183 W/m² -
1788108396 32.22° C 74% 1015.7 hPa 0 mm - 607 W/m² -
1788108091 31.11° C 75% 1015.7 hPa 0 mm - 330 W/m² -
1788107788 31.11° C 75% 1015.6 hPa 0 mm - 177 W/m² -
1788107488 32.22° C 74% 1015.6 hPa 0 mm - 168 W/m² -
1788107183 32.22° C 73% 1015.6 hPa 0 mm - 191 W/m² -
1788106879 31.11° C 73% 1015.6 hPa 0 mm - 191 W/m² -
1788106579 31.67° C 75% 1015.9 hPa 0 mm - 180 W/m² -
1788106274 31.67° C 76% 1015.8 hPa 0 mm - 788 W/m² -
1788105970 32.78° C 70% 1015.7 hPa 0 mm - 797 W/m² -
1788105670 32.78° C 75% 1015.9 hPa 0 mm - 802 W/m² -
1788105367 32.78° C 74% 1015.7 hPa 0 mm - 782 W/m² -
1788105062 32.78° C 74% 1015.8 hPa 0 mm - 779 W/m² -
1788104757 31.67° C 79% 1015.8 hPa 0 mm - 785 W/m² -
1788104454 32.22° C 78% 1015.8 hPa 0 mm - 760 W/m² -

* Rain latest hour (hover to see other rain measurements)
** Current wind speed in m/s (hover to see current wind gust speed)